| time (UTC) | temp C | wind direction | speed KPH | gust KPH | rain 1hr cm | rain 24hr cm | rain mn cm | humidity % | barometer mb |
| 20260510162502 | 25 | 245 | 11.3 | 19.3 | 0.00 | 0.00 | 0.00 | 40 | 1018.0 |
| 20260510162002 | 25 | 194 | 16.1 | 24.1 | 0.00 | 0.00 | 0.00 | 39 | 1018.0 |
| 20260510161003 | 25 | 183 | 9.7 | 16.1 | 0.00 | 0.00 | 0.00 | 39 | 1018.2 |
| 20260510160503 | 25 | 265 | 9.7 | 29.0 | 0.00 | 0.00 | 0.00 | 39 | 1018.2 |
| 20260510160002 | 25 | 293 | 16.1 | 24.1 | 0.00 | 0.00 | 0.00 | 38 | 1018.2 |
| 20260510155502 | 25 | 214 | 14.5 | 22.5 | 0.00 | 0.00 | 0.00 | 40 | 1018.2 |
| 20260510155002 | 24 | 276 | 11.3 | 16.1 | 0.00 | 0.00 | 0.00 | 40 | 1018.2 |
| 20260510154003 | 25 | 199 | 19.3 | 22.5 | 0.00 | 0.00 | 0.00 | 40 | 1018.4 |
| 20260510153503 | 25 | 206 | 19.3 | 22.5 | 0.00 | 0.00 | 0.00 | 40 | 1018.4 |
| 20260510152502 | 24 | 227 | 14.5 | 24.1 | 0.00 | 0.00 | 0.00 | 41 | 1018.3 |
| 20260510152003 | 24 | 201 | 16.1 | 20.9 | 0.00 | 0.00 | 0.00 | 40 | 1018.4 |
| 20260510151502 | 24 | 241 | 8.0 | 14.5 | 0.00 | 0.00 | 0.00 | 39 | 1018.4 |
| 20260510151002 | 24 | 226 | 14.5 | 20.9 | 0.00 | 0.00 | 0.00 | 41 | 1018.4 |
| 20260510150503 | 24 | 187 | 11.3 | 16.1 | 0.00 | 0.00 | 0.00 | 40 | 1018.4 |
| 20260510145503 | 23 | 318 | 11.3 | 16.1 | 0.00 | 0.00 | 0.00 | 39 | 1018.4 |
| 20260510145003 | 23 | 28 | 11.3 | 16.1 | 0.00 | 0.00 | 0.00 | 39 | 1018.4 |
| 20260510144502 | 23 | 336 | 9.7 | 14.5 | 0.00 | 0.00 | 0.00 | 41 | 1018.4 |
| 20260510144003 | 23 | 203 | 8.0 | 16.1 | 0.00 | 0.00 | 0.00 | 42 | 1018.4 |
| 20260510143003 | 22 | 230 | 16.1 | 25.7 | 0.00 | 0.00 | 0.00 | 43 | 1018.4 |
| 20260510142003 | 22 | 335 | 12.9 | 14.5 | 0.00 | 0.00 | 0.00 | 45 | 1018.4 |
| 20260510141003 | 21 | 232 | 16.1 | 29.0 | 0.00 | 0.00 | 0.00 | 46 | 1018.4 |
| 20260510140503 | 21 | 234 | 14.5 | 20.9 | 0.00 | 0.00 | 0.00 | 46 | 1018.4 |
| 20260510135502 | 21 | 265 | 8.0 | 22.5 | 0.00 | 0.00 | 0.00 | 48 | 1018.7 |
| 20260510135003 | 20 | 208 | 12.9 | 22.5 | 0.00 | 0.00 | 0.00 | 49 | 1018.7 |
| 20260510134503 | 20 | 238 | 9.7 | 19.3 | 0.00 | 0.00 | 0.00 | 50 | 1018.7 |
| 20260510134004 | 20 | 235 | 14.5 | 19.3 | 0.00 | 0.00 | 0.00 | 52 | 1018.4 |
| 20260510133502 | 19 | 242 | 11.3 | 22.5 | 0.00 | 0.00 | 0.00 | 52 | 1018.4 |
| 20260510133002 | 19 | 222 | 11.3 | 22.5 | 0.00 | 0.00 | 0.00 | 52 | 1018.4 |
| 20260510132503 | 19 | 322 | 11.3 | 16.1 | 0.00 | 0.00 | 0.00 | 53 | 1018.6 |
| 20260510132003 | 18 | 223 | 12.9 | 25.7 | 0.00 | 0.00 | 0.00 | 54 | 1018.6 |
| 20260510131503 | 18 | 228 | 11.3 | 25.7 | 0.00 | 0.00 | 0.00 | 55 | 1018.4 |
| 20260510130503 | 18 | 247 | 12.9 | 20.9 | 0.00 | 0.00 | 0.00 | 54 | 1018.3 |
| 20260510130003 | 18 | 196 | 11.3 | 19.3 | 0.00 | 0.00 | 0.00 | 56 | 1018.2 |
| 20260510125503 | 17 | 259 | 11.3 | 19.3 | 0.00 | 0.00 | 0.00 | 57 | 1018.1 |
| 20260510125003 | 17 | 284 | 14.5 | 19.3 | 0.00 | 0.00 | 0.00 | 59 | 1018.1 |
| 20260510124503 | 16 | 231 | 9.7 | 19.3 | 0.00 | 0.00 | 0.00 | 61 | 1018.1 |
| 20260510123503 | 16 | 221 | 11.3 | 19.3 | 0.00 | 0.00 | 0.00 | 61 | 1017.9 |
| 20260510123003 | 15 | 233 | 11.3 | 19.3 | 0.00 | 0.00 | 0.00 | 62 | 1017.9 |
| 20260510122503 | 15 | 243 | 9.7 | 14.5 | 0.00 | 0.00 | 0.00 | 64 | 1017.9 |
| 20260510121502 | 15 | 235 | 12.9 | 19.3 | 0.00 | 0.00 | 0.00 | 66 | 1017.8 |
| 20260510121003 | 14 | 210 | 9.7 | 14.5 | 0.00 | 0.00 | 0.00 | 69 | 1017.8 |
| 20260510120503 | 13 | 215 | 9.7 | 16.1 | 0.00 | 0.00 | 0.00 | 70 | 1017.9 |
| 20260510120003 | 13 | 212 | 11.3 | 16.1 | 0.00 | 0.00 | 0.00 | 72 | 1017.8 |
| 20260510115504 | 12 | 298 | 6.4 | 16.1 | 0.00 | 0.00 | 0.00 | 74 | 1017.9 |
| 20260510115003 | 12 | 196 | 3.2 | 11.3 | 0.00 | 0.00 | 0.00 | 79 | 1017.8 |
| 20260510114503 | 12 | 86 | 1.6 | 4.8 | 0.00 | 0.00 | 0.00 | 78 | 1017.7 |
| 20260510114003 | 12 | 46 | 0.0 | 4.8 | 0.00 | 0.00 | 0.00 | 79 | 1017.6 |
| 20260510113503 | 12 | 205 | 1.6 | 8.0 | 0.00 | 0.00 | 0.00 | 78 | 1017.6 |
| 20260510113002 | 12 | 356 | 3.2 | 4.8 | 0.00 | 0.00 | 0.00 | 78 | 1017.6 |
| 20260510112503 | 12 | 88 | 3.2 | 8.0 | 0.00 | 0.00 | 0.00 | 77 | 1017.5 |
| 20260510112003 | 12 | 83 | 0.0 | 4.8 | 0.00 | 0.00 | 0.00 | 78 | 1017.4 |
| 20260510111503 | 11 | 92 | 0.0 | 0.0 | 0.00 | 0.00 | 0.00 | 78 | 1017.3 |
| 20260510111003 | 11 | 92 | 1.6 | 4.8 | 0.00 | 0.00 | 0.00 | 79 | 1017.2 |
| 20260510110503 | 11 | 13 | 1.6 | 3.2 | 0.00 | 0.00 | 0.00 | 79 | 1017.1 |
| 20260510105503 | 11 | 18 | 3.2 | 4.8 | 0.00 | 0.00 | 0.00 | 80 | 1016.9 |
| 20260510105003 | 11 | 29 | 4.8 | 4.8 | 0.00 | 0.00 | 0.00 | 79 | 1016.9 |
| 20260510104503 | 11 | 20 | 0.0 | 0.0 | 0.00 | 0.00 | 0.00 | 79 | 1016.8 |
| 20260510103503 | 11 | 20 | 3.2 | 14.5 | 0.00 | 0.00 | 0.00 | 79 | 1016.7 |
| 20260510103003 | 11 | 18 | 6.4 | 8.0 | 0.00 | 0.00 | 0.00 | 79 | 1016.5 |
| 20260510101502 | 11 | 37 | 8.0 | 9.7 | 0.00 | 0.00 | 0.00 | 79 | 1016.4 |
| 20260510101004 | 10 | 341 | 6.4 | 9.7 | 0.00 | 0.00 | 0.00 | 79 | 1016.3 |
| 20260510100503 | 10 | 67 | 6.4 | 12.9 | 0.00 | 0.00 | 0.00 | 79 | 1016.2 |
| 20260510100003 | 11 | 68 | 6.4 | 9.7 | 0.00 | 0.00 | 0.00 | 78 | 1016.2 |
| 20260510095503 | 11 | 39 | 4.8 | 9.7 | 0.00 | 0.00 | 0.00 | 78 | 1016.2 |
| 20260510095003 | 11 | 57 | 11.3 | 12.9 | 0.00 | 0.00 | 0.00 | 78 | 1016.1 |
| 20260510094003 | 11 | 76 | 6.4 | 12.9 | 0.00 | 0.00 | 0.00 | 76 | 1016.0 |
| 20260510093503 | 12 | 64 | 6.4 | 11.3 | 0.00 | 0.00 | 0.00 | 74 | 1016.0 |
| 20260510093004 | 12 | 82 | 6.4 | 11.3 | 0.00 | 0.00 | 0.00 | 74 | 1015.9 |
| 20260510092503 | 12 | 170 | 8.0 | 22.5 | 0.00 | 0.00 | 0.00 | 75 | 1015.8 |
| 20260510091503 | 11 | 74 | 8.0 | 20.9 | 0.00 | 0.00 | 0.00 | 78 | 1015.7 |
| 20260510091003 | 11 | 149 | 8.0 | 14.5 | 0.00 | 0.00 | 0.00 | 76 | 1015.7 |
| 20260510090003 | 12 | 49 | 9.7 | 12.9 | 0.00 | 0.00 | 0.00 | 74 | 1015.7 |
| 20260510085503 | 12 | 34 | 9.7 | 12.9 | 0.00 | 0.00 | 0.00 | 71 | 1015.7 |
| 20260510085003 | 13 | 0 | 9.7 | 16.1 | 0.00 | 0.00 | 0.00 | 71 | 1015.7 |
| 20260510084503 | 13 | 259 | 4.8 | 11.3 | 0.00 | 0.00 | 0.00 | 70 | 1015.6 |
| 20260510084003 | 13 | 60 | 8.0 | 19.3 | 0.00 | 0.00 | 0.00 | 72 | 1015.6 |
| 20260510083503 | 13 | 344 | 9.7 | 20.9 | 0.00 | 0.00 | 0.00 | 72 | 1015.6 |
| 20260510083003 | 12 | 34 | 6.4 | 14.5 | 0.00 | 0.00 | 0.00 | 72 | 1015.6 |
| 20260510082503 | 12 | 193 | 8.0 | 11.3 | 0.00 | 0.00 | 0.00 | 74 | 1015.6 |
| 20260510082003 | 12 | 75 | 6.4 | 20.9 | 0.00 | 0.00 | 0.00 | 74 | 1015.6 |
| 20260510081504 | 12 | 342 | 8.0 | 20.9 | 0.00 | 0.00 | 0.00 | 73 | 1015.5 |
| 20260510081003 | 12 | 38 | 8.0 | 11.3 | 0.00 | 0.00 | 0.00 | 72 | 1015.4 |
| 20260510080503 | 12 | 38 | 6.4 | 9.7 | 0.00 | 0.00 | 0.00 | 72 | 1015.4 |
| 20260510080003 | 12 | 343 | 8.0 | 14.5 | 0.00 | 0.00 | 0.00 | 74 | 1015.2 |
| 20260510075503 | 12 | 160 | 8.0 | 12.9 | 0.00 | 0.00 | 0.00 | 73 | 1015.2 |
| 20260510075003 | 12 | 70 | 8.0 | 14.5 | 0.00 | 0.00 | 0.00 | 72 | 1015.2 |
| 20260510074504 | 12 | 73 | 8.0 | 11.3 | 0.00 | 0.00 | 0.00 | 73 | 1015.2 |
| 20260510074003 | 12 | 355 | 8.0 | 14.5 | 0.00 | 0.00 | 0.00 | 71 | 1015.1 |
| 20260510073503 | 12 | 24 | 4.8 | 8.0 | 0.00 | 0.00 | 0.00 | 70 | 1015.0 |
| 20260510073003 | 12 | 117 | 3.2 | 9.7 | 0.00 | 0.00 | 0.00 | 71 | 1015.1 |
| 20260510072503 | 12 | 178 | 4.8 | 11.3 | 0.00 | 0.00 | 0.00 | 71 | 1015.1 |
| 20260510072004 | 12 | 203 | 6.4 | 9.7 | 0.00 | 0.00 | 0.00 | 71 | 1015.1 |
| 20260510071503 | 12 | 149 | 3.2 | 4.8 | 0.00 | 0.00 | 0.00 | 70 | 1015.0 |
| 20260510070503 | 13 | 71 | 3.2 | 12.9 | 0.00 | 0.00 | 0.00 | 69 | 1015.0 |
| 20260510065503 | 13 | 39 | 3.2 | 11.3 | 0.00 | 0.00 | 0.00 | 69 | 1015.1 |
| 20260510065004 | 13 | 141 | 1.6 | 4.8 | 0.00 | 0.00 | 0.00 | 69 | 1015.1 |
| 20260510064503 | 13 | 132 | 0.0 | 4.8 | 0.00 | 0.00 | 0.00 | 68 | 1015.1 |
| 20260510064003 | 13 | 82 | 0.0 | 0.0 | 0.00 | 0.00 | 0.00 | 68 | 1015.1 |
| 20260510063003 | 13 | 213 | 0.0 | 0.0 | 0.00 | 0.00 | 0.00 | 68 | 1015.2 |
| 20260510062503 | 13 | 213 | 1.6 | 3.2 | 0.00 | 0.00 | 0.00 | 68 | 1015.2 |
| 20260510062003 | 13 | 280 | 3.2 | 3.2 | 0.00 | 0.00 | 0.00 | 68 | 1015.3 |
| 20260510061503 | 13 | 181 | 1.6 | 4.8 | 0.00 | 0.00 | 0.00 | 68 | 1015.3 |
| 20260510060503 | 13 | 265 | 3.2 | 4.8 | 0.00 | 0.00 | 0.00 | 67 | 1015.3 |
| 20260510060003 | 13 | 300 | 1.6 | 4.8 | 0.00 | 0.00 | 0.00 | 67 | 1015.3 |
| 20260510055503 | 13 | 251 | 0.0 | 3.2 | 0.00 | 0.00 | 0.00 | 66 | 1015.4 |
| 20260510055003 | 13 | 325 | 1.6 | 4.8 | 0.00 | 0.00 | 0.00 | 66 | 1015.3 |
| 20260510054504 | 13 | 313 | 4.8 | 8.0 | 0.00 | 0.00 | 0.00 | 67 | 1015.4 |
| 20260510054004 | 13 | 304 | 4.8 | 4.8 | 0.00 | 0.00 | 0.00 | 67 | 1015.3 |
| 20260510053503 | 13 | 271 | 4.8 | 8.0 | 0.00 | 0.00 | 0.00 | 67 | 1015.3 |
| 20260510053003 | 13 | 291 | 4.8 | 4.8 | 0.00 | 0.00 | 0.00 | 67 | 1015.3 |
| 20260510052503 | 12 | 301 | 3.2 | 4.8 | 0.00 | 0.00 | 0.00 | 68 | 1015.4 |
| 20260510052004 | 13 | 280 | 4.8 | 4.8 | 0.00 | 0.00 | 0.00 | 67 | 1015.5 |
| 20260510051003 | 13 | 321 | 4.8 | 4.8 | 0.00 | 0.00 | 0.00 | 67 | 1015.4 |
| 20260510050503 | 13 | 280 | 9.7 | 11.3 | 0.00 | 0.00 | 0.00 | 67 | 1015.5 |
| 20260510050003 | 13 | 232 | 8.0 | 8.0 | 0.00 | 0.00 | 0.00 | 66 | 1015.4 |
| 20260510045503 | 13 | 276 | 3.2 | 4.8 | 0.00 | 0.00 | 0.00 | 66 | 1015.4 |
| 20260510043503 | 13 | 257 | 6.4 | 8.0 | 0.00 | 0.00 | 0.00 | 65 | 1015.3 |
| 20260510043003 | 13 | 270 | 1.6 | 8.0 | 0.00 | 0.00 | 0.00 | 65 | 1015.4 |
| 20260510042003 | 13 | 298 | 4.8 | 8.0 | 0.00 | 0.00 | 0.00 | 65 | 1015.4 |
| 20260510040504 | 13 | 246 | 4.8 | 8.0 | 0.00 | 0.00 | 0.00 | 64 | 1015.3 |
| 20260510040004 | 13 | 225 | 0.0 | 3.2 | 0.00 | 0.00 | 0.00 | 64 | 1015.3 |
| 20260510035503 | 13 | 234 | 4.8 | 9.7 | 0.00 | 0.00 | 0.00 | 64 | 1015.4 |
| 20260510035003 | 13 | 273 | 4.8 | 4.8 | 0.00 | 0.00 | 0.00 | 63 | 1015.3 |
| 20260510034503 | 14 | 256 | 4.8 | 8.0 | 0.00 | 0.00 | 0.00 | 63 | 1015.3 |
| 20260510034003 | 14 | 277 | 0.0 | 0.0 | 0.00 | 0.00 | 0.00 | 62 | 1015.3 |
| 20260510033503 | 14 | 277 | 0.0 | 0.0 | 0.00 | 0.00 | 0.00 | 61 | 1015.2 |
| 20260510032503 | 14 | 277 | 1.6 | 8.0 | 0.00 | 0.00 | 0.00 | 61 | 1015.1 |
| 20260510032003 | 14 | 301 | 6.4 | 8.0 | 0.00 | 0.00 | 0.00 | 61 | 1015.1 |
| 20260510031503 | 14 | 288 | 3.2 | 4.8 | 0.00 | 0.00 | 0.00 | 61 | 1015.1 |
| 20260510031003 | 15 | 221 | 8.0 | 8.0 | 0.00 | 0.00 | 0.00 | 60 | 1015.1 |
| 20260510030503 | 15 | 278 | 6.4 | 8.0 | 0.00 | 0.00 | 0.00 | 60 | 1014.9 |
| 20260510030003 | 15 | 240 | 3.2 | 8.0 | 0.00 | 0.00 | 0.00 | 59 | 1015.0 |
| 20260510025503 | 15 | 160 | 0.0 | 0.0 | 0.00 | 0.00 | 0.00 | 59 | 1015.0 |
| 20260510024503 | 15 | 160 | 0.0 | 0.0 | 0.00 | 0.00 | 0.00 | 58 | 1014.9 |
| 20260510024003 | 15 | 160 | 0.0 | 0.0 | 0.00 | 0.00 | 0.00 | 57 | 1014.7 |
| 20260510023504 | 16 | 160 | 0.0 | 0.0 | 0.00 | 0.00 | 0.00 | 56 | 1014.7 |
| 20260510023003 | 16 | 160 | 0.0 | 0.0 | 0.00 | 0.00 | 0.00 | 56 | 1014.6 |
| 20260510022503 | 16 | 160 | 0.0 | 1.6 | 0.00 | 0.00 | 0.00 | 56 | 1014.6 |
| 20260510022003 | 16 | 211 | 3.2 | 8.0 | 0.00 | 0.00 | 0.00 | 55 | 1014.5 |
| 20260510021504 | 16 | 198 | 8.0 | 8.0 | 0.00 | 0.00 | 0.00 | 54 | 1014.4 |
| 20260510021004 | 16 | 183 | 3.2 | 4.8 | 0.00 | 0.00 | 0.00 | 53 | 1014.3 |
| 20260510020504 | 16 | 114 | 3.2 | 9.7 | 0.00 | 0.00 | 0.00 | 54 | 1014.3 |
| 20260510020004 | 16 | 7 | 4.8 | 8.0 | 0.00 | 0.00 | 0.00 | 54 | 1014.3 |
| 20260510015004 | 16 | 298 | 0.0 | 0.0 | 0.00 | 0.00 | 0.00 | 55 | 1014.2 |
| 20260510014503 | 16 | 298 | 0.0 | 0.0 | 0.00 | 0.00 | 0.00 | 55 | 1014.1 |
| 20260510013504 | 16 | 298 | 0.0 | 0.0 | 0.00 | 0.00 | 0.00 | 54 | 1013.9 |
| 20260510013004 | 16 | 298 | 0.0 | 0.0 | 0.00 | 0.00 | 0.00 | 54 | 1013.8 |
| 20260510012503 | 16 | 298 | 0.0 | 0.0 | 0.00 | 0.00 | 0.00 | 53 | 1013.6 |
| 20260510012004 | 16 | 298 | 0.0 | 0.0 | 0.00 | 0.00 | 0.00 | 53 | 1013.6 |
| 20260510011503 | 17 | 298 | 0.0 | 0.0 | 0.00 | 0.00 | 0.00 | 52 | 1013.6 |
| 20260510011004 | 17 | 298 | 0.0 | 0.0 | 0.00 | 0.00 | 0.00 | 51 | 1013.5 |
| 20260510010004 | 17 | 298 | 0.0 | 0.0 | 0.00 | 0.00 | 0.00 | 50 | 1013.4 |
| 20260510005503 | 17 | 272 | 0.0 | 9.7 | 0.00 | 0.00 | 0.00 | 51 | 1013.4 |
| 20260510005003 | 17 | 354 | 0.0 | 3.2 | 0.00 | 0.00 | 0.00 | 49 | 1013.3 |
| 20260510004004 | 17 | 316 | 1.6 | 8.0 | 0.00 | 0.00 | 0.00 | 51 | 1013.2 |
| 20260510003004 | 17 | 211 | 3.2 | 4.8 | 0.00 | 0.00 | 0.00 | 52 | 1013.3 |
| 20260510002504 | 17 | 196 | 0.0 | 0.0 | 0.00 | 0.00 | 0.00 | 50 | 1013.3 |
| 20260510001504 | 18 | 196 | 1.6 | 8.0 | 0.00 | 0.00 | 0.00 | 50 | 1013.2 |
| 20260510001004 | 18 | 208 | 0.0 | 3.2 | 0.00 | 0.00 | 0.00 | 49 | 1013.0 |
| 20260510000503 | 18 | 189 | 0.0 | 0.0 | 0.00 | 0.00 | 0.00 | 48 | 1013.0 |
| 20260510000004 | 18 | 240 | 1.6 | 3.2 | 0.00 | 0.00 | 0.00 | 47 | 1012.8 |
| 20260509235504 | 18 | 299 | 0.0 | 0.0 | 0.00 | 0.00 | 0.00 | 47 | 1012.6 |
| 20260509235003 | 19 | 299 | 0.0 | 0.0 | 0.00 | 0.00 | 0.00 | 45 | 1012.6 |
| 20260509234503 | 19 | 299 | 0.0 | 0.0 | 0.00 | 0.00 | 0.00 | 45 | 1012.5 |
| 20260509234004 | 19 | 299 | 3.2 | 4.8 | 0.00 | 0.00 | 0.00 | 44 | 1012.5 |
| 20260509233504 | 19 | 337 | 1.6 | 8.0 | 0.00 | 0.00 | 0.00 | 44 | 1012.4 |
| 20260509233004 | 19 | 340 | 4.8 | 11.3 | 0.00 | 0.00 | 0.00 | 43 | 1012.4 |
| 20260509232503 | 20 | 334 | 1.6 | 9.7 | 0.00 | 0.00 | 0.00 | 43 | 1012.4 |
| 20260509232003 | 20 | 189 | 4.8 | 8.0 | 0.00 | 0.00 | 0.00 | 42 | 1012.3 |
| 20260509231503 | 20 | 282 | 3.2 | 16.1 | 0.00 | 0.00 | 0.00 | 42 | 1012.4 |
| 20260509230504 | 20 | 324 | 6.4 | 11.3 | 0.00 | 0.00 | 0.00 | 40 | 1012.1 |
| 20260509230003 | 20 | 237 | 1.6 | 11.3 | 0.00 | 0.00 | 0.00 | 40 | 1012.1 |
| 20260509225504 | 20 | 219 | 4.8 | 12.9 | 0.00 | 0.00 | 0.00 | 40 | 1012.0 |
| 20260509225003 | 20 | 265 | 8.0 | 11.3 | 0.00 | 0.00 | 0.00 | 40 | 1012.0 |
| 20260509224004 | 20 | 217 | 6.4 | 11.3 | 0.00 | 0.00 | 0.00 | 40 | 1012.1 |
| 20260509223503 | 20 | 223 | 9.7 | 16.1 | 0.00 | 0.00 | 0.00 | 40 | 1012.0 |
| 20260509222504 | 20 | 194 | 11.3 | 20.9 | 0.00 | 0.00 | 0.00 | 40 | 1012.0 |
| 20260509222004 | 20 | 90 | 0.0 | 4.8 | 0.00 | 0.00 | 0.00 | 42 | 1012.0 |
| 20260509221004 | 21 | 80 | 1.6 | 8.0 | 0.00 | 0.00 | 0.00 | 42 | 1012.0 |
| 20260509220504 | 21 | 201 | 3.2 | 11.3 | 0.00 | 0.00 | 0.00 | 41 | 1011.9 |
| 20260509220004 | 21 | 23 | 9.7 | 12.9 | 0.00 | 0.00 | 0.00 | 41 | 1012.0 |
| 20260509215504 | 21 | 216 | 3.2 | 8.0 | 0.00 | 0.00 | 0.00 | 43 | 1011.9 |
| 20260509215004 | 21 | 262 | 4.8 | 11.3 | 0.00 | 0.00 | 0.00 | 42 | 1011.8 |
| 20260509214504 | 21 | 273 | 12.9 | 24.1 | 0.00 | 0.00 | 0.00 | 41 | 1011.8 |
| 20260509213503 | 21 | 215 | 8.0 | 11.3 | 0.00 | 0.00 | 0.00 | 41 | 1011.8 |
| 20260509213005 | 21 | 206 | 8.0 | 11.3 | 0.00 | 0.00 | 0.00 | 41 | 1011.7 |
| 20260509212504 | 21 | 145 | 8.0 | 12.9 | 0.00 | 0.00 | 0.00 | 40 | 1011.6 |
| 20260509212003 | 21 | 200 | 8.0 | 11.3 | 0.00 | 0.00 | 0.00 | 40 | 1011.5 |
| 20260509211003 | 22 | 283 | 4.8 | 12.9 | 0.00 | 0.00 | 0.00 | 40 | 1011.5 |
| 20260509210503 | 22 | 240 | 4.8 | 20.9 | 0.00 | 0.00 | 0.00 | 39 | 1011.4 |
| 20260509205503 | 22 | 201 | 11.3 | 24.1 | 0.00 | 0.00 | 0.00 | 39 | 1011.4 |
| 20260509204504 | 22 | 221 | 20.9 | 24.1 | 0.00 | 0.00 | 0.00 | 38 | 1011.3 |
| 20260509204004 | 22 | 152 | 8.0 | 16.1 | 0.00 | 0.00 | 0.00 | 39 | 1011.2 |
| 20260509203504 | 22 | 297 | 14.5 | 27.4 | 0.00 | 0.00 | 0.00 | 37 | 1011.3 |
| 20260509203004 | 22 | 157 | 20.9 | 27.4 | 0.00 | 0.00 | 0.00 | 37 | 1011.3 |
| 20260509202504 | 22 | 260 | 11.3 | 19.3 | 0.00 | 0.00 | 0.00 | 38 | 1011.3 |
| 20260509202004 | 22 | 199 | 16.1 | 33.8 | 0.00 | 0.00 | 0.00 | 40 | 1011.3 |
| 20260509201503 | 21 | 223 | 19.3 | 33.8 | 0.00 | 0.00 | 0.00 | 41 | 1011.3 |
| 20260509201004 | 21 | 215 | 16.1 | 22.5 | 0.00 | 0.00 | 0.00 | 41 | 1011.2 |
| 20260509200003 | 21 | 271 | 11.3 | 22.5 | 0.00 | 0.00 | 0.00 | 39 | 1011.3 |
| 20260509195504 | 21 | 256 | 11.3 | 19.3 | 0.00 | 0.00 | 0.00 | 40 | 1011.4 |
| 20260509195004 | 21 | 193 | 19.3 | 27.4 | 0.00 | 0.00 | 0.00 | 41 | 1011.3 |
| 20260509194504 | 21 | 221 | 16.1 | 33.8 | 0.00 | 0.00 | 0.00 | 40 | 1011.4 |
| 20260509194004 | 21 | 248 | 17.7 | 22.5 | 0.00 | 0.00 | 0.00 | 41 | 1011.3 |
| 20260509193004 | 21 | 219 | 16.1 | 20.9 | 0.00 | 0.00 | 0.00 | 42 | 1011.2 |
| 20260509192503 | 21 | 207 | 14.5 | 22.5 | 0.00 | 0.00 | 0.00 | 44 | 1011.3 |
| 20260509192004 | 21 | 197 | 8.0 | 11.3 | 0.00 | 0.00 | 0.00 | 44 | 1011.4 |
| 20260509191504 | 21 | 231 | 9.7 | 11.3 | 0.00 | 0.00 | 0.00 | 43 | 1011.5 |
| 20260509191004 | 21 | 248 | 4.8 | 12.9 | 0.00 | 0.00 | 0.00 | 43 | 1011.6 |
| 20260509190504 | 21 | 331 | 8.0 | 12.9 | 0.00 | 0.00 | 0.00 | 42 | 1011.5 |
| 20260509184504 | 21 | 249 | 11.3 | 20.9 | 0.00 | 0.00 | 0.00 | 42 | 1011.6 |
| 20260509184004 | 21 | 233 | 14.5 | 20.9 | 0.00 | 0.00 | 0.00 | 42 | 1011.6 |
| 20260509183504 | 21 | 198 | 11.3 | 22.5 | 0.00 | 0.00 | 0.00 | 44 | 1011.6 |
| 20260509182504 | 21 | 239 | 19.3 | 20.9 | 0.00 | 0.00 | 0.00 | 44 | 1011.9 |
| 20260509182004 | 20 | 207 | 8.0 | 14.5 | 0.00 | 0.00 | 0.00 | 51 | 1012.0 |
| 20260509181503 | 20 | 169 | 3.2 | 8.0 | 0.00 | 0.00 | 0.00 | 47 | 1012.1 |
| 20260509181004 | 20 | 199 | 0.0 | 3.2 | 0.00 | 0.00 | 0.00 | 49 | 1012.2 |
| 20260509180504 | 20 | 28 | 0.0 | 4.8 | 0.00 | 0.00 | 0.00 | 50 | 1012.2 |
| 20260509180004 | 20 | 342 | 1.6 | 9.7 | 0.00 | 0.00 | 0.00 | 48 | 1012.2 |
| 20260509175504 | 20 | 76 | 8.0 | 12.9 | 0.00 | 0.00 | 0.00 | 48 | 1012.2 |
| 20260509175003 | 20 | 119 | 4.8 | 25.7 | 0.00 | 0.00 | 0.00 | 51 | 1012.3 |
| 20260509174503 | 20 | 157 | 8.0 | 16.1 | 0.00 | 0.00 | 0.00 | 52 | 1012.4 |
| 20260509174003 | 20 | 200 | 8.0 | 12.9 | 0.00 | 0.00 | 0.00 | 50 | 1012.4 |
| 20260509173003 | 19 | 74 | 4.8 | 14.5 | 0.00 | 0.00 | 0.00 | 50 | 1012.5 |
| 20260509172502 | 20 | 351 | 6.4 | 11.3 | 0.00 | 0.00 | 0.00 | 52 | 1012.6 |
| 20260509172002 | 20 | 72 | 8.0 | 8.0 | 0.00 | 0.00 | 0.00 | 52 | 1012.7 |
| 20260509171502 | 20 | 44 | 0.0 | 0.0 | 0.00 | 0.00 | 0.00 | 54 | 1012.6 |
| 20260509171003 | 20 | 44 | 0.0 | 12.9 | 0.00 | 0.00 | 0.00 | 58 | 1012.7 |
| 20260509170502 | 19 | 125 | 6.4 | 11.3 | 0.00 | 0.00 | 0.00 | 56 | 1012.6 |
| 20260509170003 | 19 | 23 | 3.2 | 8.0 | 0.00 | 0.00 | 0.00 | 59 | 1013.0 |
| 20260509165503 | 19 | 120 | 4.8 | 9.7 | 0.00 | 0.00 | 0.00 | 57 | 1013.0 |
| 20260509165002 | 19 | 39 | 3.2 | 8.0 | 0.00 | 0.00 | 0.00 | 56 | 1013.1 |
| 20260509164502 | 19 | 72 | 3.2 | 4.8 | 0.00 | 0.00 | 0.00 | 57 | 1013.2 |
| 20260509164003 | 19 | 11 | 6.4 | 8.0 | 0.00 | 0.00 | 0.00 | 56 | 1013.3 |
| 20260509163002 | 19 | 323 | 9.7 | 11.3 | 0.00 | 0.00 | 0.00 | 56 | 1013.3 |